User: anonymous   Login
Location: Bush Observatory
(40.2653°N, 94.3194°W)
Time: 22:39:16
(UTC-05:00)
Language:

Cosmos 1933 Rocket - Orbit

View from above orbital plane
View from above orbital plane
View from above satellite
View from above satellite

Ground track
Ground track

The orbit data is extracted from the following two-line orbital elements,

1 18959U 88020B   17175.31072392 +.00000077 +00000-0 +63639-5 0  9994
2 18959 082.5386 264.1559 0018362 111.9532 248.3637 14.83340397560556
Epoch (UTC): 24 June 2017 07:27:26
Eccentricity: 0.0018362
inclination: 82.5386°
perigee height: 606 km
apogee height: 631 km
right ascension of ascending node: 264.1559°
argument of perigee: 111.9532°
revolutions per day: 14.83340397
mean anomaly at epoch: 248.3637°
orbit number at epoch: 56055

The dashed part of the orbit path shows where the satellite is in the earth's shadow,  

DLR